Home   Weather   Macon   Past weeks

Flag for USA Past Weather in Macon, Georgia, USA — Yesterday and Last 2 Weeks

Now
80 °F

Sunny.


Feels Like: 79 °F
Forecast: 52 / 77 °F
Wind: 6 mph from West

Location: Middle Georgia Regional Airport

Current Time: Sep 30, 2016 at 6:13:47 PM

Latest Report: Sep 30, 2016 at 4:53 PM


Visibility: 10 mi

Pressure: 29.98 "Hg

Humidity: 29%

Dew Point: 45 °F

Location of MaconLocation

Past Weather in Macon — Graph

°F

Macon Temperature Yesterday

Maximum temperature yesterday: 91 °F (at 2:53 PM)
Minimum temperature yesterday: 58 °F (at 6:53 AM)
Average temperature yesterday: 75 °F

High & Low Weather Summary for the Past Weeks

 TemperatureHumidityPressure
High94 °F (Sep 24, 2:53 PM)100% (Sep 29, 5:53 AM)30.16 "Hg (Sep 29, 5:53 AM)
Low50 °F (Sep 30, 6:53 AM)27% (Sep 29, 12:53 PM)29.83 "Hg (Sep 27, 5:53 PM)
Average77 °F70%30.00 "Hg
* Reported Sep 15 4:53 PM — Sep 30 4:53 PM, Macon, Weather by CustomWeather, © 2016

Note: Actual official high and low records may vary slightly from our data, if they occured in-between our weather recording intervals... More about our weather records

Advertising

Macon Weather History for the Previous 24 Hours

Scroll right to see more
 ConditionsComfort  
Time TempWeatherWind HumidityBarometerVisibility
4:53 PM
Fri, Sep 30
80 °FSunny.6 mph29%29.98 "Hg10 mi
3:53 PM81 °FSunny.7 mph28%29.98 "Hg10 mi
2:53 PM81 °FSunny.7 mph28%30.00 "Hg10 mi
1:53 PM78 °FSunny.12 mph32%30.02 "Hg10 mi
12:53 PM77 °FSunny.N/A35%30.04 "Hg10 mi
11:53 AM72 °FSunny.7 mph41%30.05 "Hg10 mi
10:53 AM71 °FSunny.3 mph44%30.06 "Hg10 mi
9:53 AM66 °FSunny.7 mph52%30.06 "Hg10 mi
8:53 AM59 °FSunny.6 mph69%30.05 "Hg10 mi
7:53 AM53 °FSunny.6 mph83%30.03 "Hg10 mi
6:53 AM50 °FClear.No wind89%30.01 "Hg10 mi
5:53 AM52 °FClear.5 mph83%30.00 "Hg10 mi
4:53 AM53 °FClear.5 mph83%29.99 "Hg10 mi
3:53 AM54 °FClear.5 mph80%29.99 "Hg10 mi
2:53 AM55 °FClear.6 mph80%29.99 "Hg10 mi
1:53 AM58 °FClear.3 mph72%29.99 "Hg10 mi
12:53 AM60 °FClear.6 mph69%30.01 "Hg10 mi
11:53 PM
Thu, Sep 29
67 °FClear.8 mph49%30.01 "Hg10 mi
10:53 PM64 °FClear.6 mph65%30.01 "Hg10 mi
9:53 PM71 °FClear.6 mph47%29.99 "Hg10 mi
8:53 PM75 °FClear.9 mph45%29.98 "Hg10 mi
7:53 PM78 °FPassing clouds.9 mph42%29.96 "Hg10 mi
6:53 PM82 °FSunny.9 mph38%29.92 "Hg10 mi
Weather by CustomWeather, © 2016

See weather overviewHow to use our weather pages